Back to catalog

DELTA 1 DEB

AliveSSO
NORAD 12176·DEBRIS·🇺🇸 United States

Launched Mar 5, 1978 from Vandenberg Space Force Base

Loading…

Next Passes (next 24 hours)

TLE

FreshSource: Space-Track

Epoch: Sep 14, 2026, 04:18 UTC

1 12176U 78026R   26257.17971655  .00000022  00000-0  51504-4 0  9996
2 12176  98.9155 138.7891 0065785  54.2269 108.3454 13.89039741310624

Track DELTA 1 DEB in real time with AllMySat

Download on the App Store